Showing default

SUPERVIEW NEO-3 01, 59510

Orbit data source: Space-Track

SUPERVIEW NEO-3 01, 59510 is a payload satellite owned by Siwei (CN) in SSO that was launched on Mon, 15 Apr 2024 UTC via a CHANG ZHENG 2D launch vehicle from the Jiuquan Satellite Launch Center, China (JSC). Payload-class satellites include a variety of spacecraft equipped with specific instruments for various scientific and technological missions. These include communications satellites like Starlink; space stations such as the ISS; scientific satellites like the Hubble; Earth observation satellites from companies like Planet Labs, Umbra, and HawkEye 360; GPS; miniature CubeSats for education and research; and military/defense satellites.

Loading next visibility...
Identifier
59510, 2024-072A
Orbit
SSO
Country
Flag of CNCN / PRC
Related business
Manufacturer
SAST
Mission
Operational Commercial Imaging
Bus & Motor
SIWEI, Unknown motor
Mass
600 kg wet, ~500 kg dry
Launch date (UTC)
2024-04-15 (2 years ago)
Launch vehicle
CHANG ZHENG 2D
Launch site
Jiuquan Satellite Launch Center, China (JSC)
Object type
Payload
Rocket body
Debris
Shape & HBR
Box, 0.3 m
Radar Cross Section
0.375 m², Large (>1 m²)

Expand to show TLE details & history
Last TLE update: 22 hours ago

TLE from 22 hours ago
0 SUPERVIEW NEO-3 01
1 59510U 24072A   26172.52555700  .00006329  00000-0  28061-3 0  9992
2 59510  97.4136 252.5294 0002986 100.3912 259.7661 15.21947511121367
Epoch: 2026-06-21T12:36Z
TLE epoch observation values (Epoch: 2026-06-21T12:36:48.124Z)
Latitude
-0.00003°
Longitude
153.60431°
Altitude
503.425 km
Speed
7.612 km/s
True Right ascension
16h 50m 07s
True Declination
0° 00' 00"
Sunlit
Object was in full shadow at epoch
Visualization orbit readout
Latitude
Unknown
Longitude
Unknown
Altitude
Unknown
Speed
Unknown
Apparent Right ascension
Unknown
Apparent Declination
Unknown
Sunlit
N/A
Visualization observer readout
Local Sidereal Time
21:32:20
Azimuth
Unknown
Elevation
Unknown
Doppler factor
Unknown
Orbital elements
Apogee altitude
498.983 km
Perigee altitude
494.877 km
Semi-major axis
6,875.067 km
Eccentricity
0.0003
Inclination
97.4136°
RAAN
252.5294°
Arg. of periapsis
100.3912°
True anomaly
259.73243°
Mean anomaly
259.7661°
Eccentric anomaly
259.74926°
Mean motion
3.80739 °/min
Orbital period
94.55 mins
BSTAR
0.00028061
Loading maneuver chart data...
Computing Atmospheric mass density...
Loading historical data...
Loading historical data...
Loading historical data...
Loading historical data...
Loading historical data...
Loading historical data...
Loading historical data...
Other satellites on launch #72 in the year 2024 (2024-04-15 UTC)

Documentation

Showing up to 5 results
|